User: anonymous   Login
Location: Hopkins Observatory
(42.6965°N, 73.1843°W)
Time: 09:53:47
(UTC-04:00)
Language:

UOSAT-12 - Orbit

View from above orbital plane
View from above orbital plane
View from above satellite
View from above satellite

Ground track
Ground track

The orbit data is extracted from the following two-line orbital elements,

1 25693U 99021A   15146.92623375  .00000090  00000-0  30633-4 0  9998
2 25693 064.5564 283.7343 0043293 243.2831 255.1007 14.80447148868790
Epoch (UTC): 26 May 2015 22:13:46
Eccentricity: 0.0043293
inclination: 64.5564°
perigee height: 597 km
apogee height: 658 km
right ascension of ascending node: 283.7343°
argument of perigee: 243.2831°
revolutions per day: 14.80447148
mean anomaly at epoch: 255.1007°
orbit number at epoch: 86879

The dashed part of the orbit path shows where the satellite is in the earth's shadow,  

DLR